Flag for France Weather past 2 weeks in Le Mans, France

Now
61 °F

Clear.


Feels Like: 61 °F
Forecast: 39 / 66 °F
Wind: 7 mph from Southwest

Location: Le Mans Airport


UV Index: 3 (Moderate)

Visibility: N/A


Pressure: 29.59 "Hg

Humidity: 39%

Dew point: 36 °F

Location of Le MansLocation

Historic Weather in Le Mans

°F

Le Mans temperature yesterday

Maximum temperature yesterday: 55 °F (at 3:30 PM)
Minimum temperature yesterday: 39 °F (at 6:00 AM)
Average temperature yesterday: 48 °F

Past Weeks' High & Low Weather Summary

 TemperatureHumidityPressure
High72 °F (Apr 7, 1:30 PM)100% (Apr 6, 8:30 AM)30.39 "Hg (Apr 6, 8:30 AM)
Low34 °F (Apr 9, 6:00 AM)25% (Apr 17, 3:30 PM)29.59 "Hg (Apr 20, 1:00 PM)
Average54 °F64%30.11 "Hg
* Reported Apr 5 6:00 PM — Apr 20 6:30 PM, Le Mans, Weather by CustomWeather, © 2014

Note: Actual official high and low records may vary slightly from our data, if they occured in-between our weather recording intervals... More about our weather records

Advertising

Historic Weather Conditions — Data for Previous 24 hours

 ConditionsComfort  
Time TempWeatherWind HumidityBarometerVisibility
6:30 PM
Apr 20
59 °FClear.8 mph36%29.59 "HgN/A
6:00 PM61 °FClear.5 mph36%29.59 "HgN/A
5:30 PM61 °FClear.7 mph36%29.59 "HgN/A
5:00 PM61 °FClear.6 mph39%29.59 "HgN/A
4:30 PM61 °FClear.7 mph36%29.59 "HgN/A
4:00 PM61 °FClear.7 mph34%29.59 "HgN/A
3:30 PM59 °FClear.7 mph42%29.59 "HgN/A
3:00 PM59 °FClear.8 mph42%29.59 "HgN/A
2:30 PM61 °FClear.9 mph42%29.59 "HgN/A
2:00 PM57 °FPartly sunny.7 mph44%29.59 "HgN/A
1:30 PM55 °FPartly sunny.3 mph55%29.59 "HgN/A
1:00 PM54 °FMostly cloudy.3 mph54%29.59 "HgN/A
12:30 PM54 °FOvercast.6 mph58%29.62 "HgN/A
12:00 PM52 °FMostly cloudy.5 mph62%29.62 "HgN/A
11:30 AM54 °FBroken clouds.5 mph58%29.62 "HgN/A
11:00 AM52 °FPartly sunny.6 mph67%29.62 "HgN/A
10:30 AM50 °FPartly sunny.6 mph76%29.62 "HgN/A
10:00 AM48 °FMostly cloudy.3 mph82%29.62 "HgN/A
9:30 AM46 °FOvercast.2 mph87%29.62 "Hg5 mi
9:00 AM46 °FMostly cloudy.2 mph87%29.65 "Hg4 mi
8:30 AM45 °FMostly cloudy.No wind93%29.65 "Hg4 mi
8:00 AM45 °FMostly cloudy.No wind93%29.65 "Hg4 mi
7:30 AM45 °FOvercast.1 mph93%29.65 "Hg4 mi
7:00 AM45 °FMostly cloudy.No wind93%29.65 "Hg4 mi
6:30 AM45 °FMostly cloudy.No wind87%29.65 "HgN/A
6:00 AM46 °FMostly cloudy.3 mph87%29.65 "HgN/A
5:30 AM46 °FOvercast.2 mph87%29.68 "HgN/A
5:00 AM46 °FLight rain. Overcast.2 mph87%29.68 "HgN/A
4:30 AM46 °FDrizzle. Overcast.2 mph87%29.71 "HgN/A
4:00 AM46 °FMostly cloudy.2 mph87%29.71 "HgN/A
3:30 AM46 °FClear.3 mph82%29.74 "HgN/A
3:00 AM46 °FClear.5 mph82%29.74 "HgN/A
2:30 AM46 °FLight rain. Overcast.7 mph82%29.74 "HgN/A
2:00 AM46 °FLight rain. Mostly cloudy.7 mph82%29.77 "HgN/A
1:30 AM46 °FLight rain. Overcast.6 mph82%29.77 "HgN/A
1:00 AM46 °FLight rain. Overcast.3 mph82%29.80 "HgN/A
12:30 AM48 °FLight rain. Mostly cloudy.6 mph76%29.80 "HgN/A
12:00 AM50 °FClear.8 mph67%29.83 "HgN/A
11:30 PM
Apr 19
50 °FClear.8 mph62%29.83 "HgN/A
11:00 PM50 °FClear.9 mph62%29.83 "HgN/A
10:30 PM50 °FClear.6 mph62%29.83 "HgN/A
10:00 PM50 °FClear.8 mph58%29.83 "HgN/A
9:30 PM50 °FClear.7 mph58%29.83 "HgN/A
9:00 PM52 °FClear.12 mph54%29.83 "HgN/A
8:30 PM54 °FMostly cloudy.15 mph51%29.83 "HgN/A
8:00 PM55 °FClear.8 mph47%29.83 "HgN/A
7:30 PM54 °FPassing clouds.8 mph51%29.83 "HgN/A
7:00 PM55 °FPartly sunny.12 mph47%29.83 "HgN/A
Weather by CustomWeather, © 2014

See weather overview